Torna al catalogo

STARLINK-31136

AttivoComunicazioniVLEO
NORAD 58772·PAYLOAD·🇺🇸 United States

Lanciato Jan 14, 2024 da Vandenberg Space Force Base

Loading…

Prossimi Passaggi (prossime 24 ore)

TLE

AggiornatoSource: CelesTrak SupGP

Epoca: Sep 15, 2026, 02:46 UTC

1 58772C 24011H   26258.11576389 -.00071192  00000+0 -21033-2 0  2580
2 58772  53.1581 210.8615 0001390  94.5774 273.4459 15.34427011    19

Traccia STARLINK-31136 in tempo reale con AllMySat

Download on the App Store